Location: Blanton
(30.8302°N, 83.1188°W)
Time: 06:14:30
(UTC+00:00)

X-37B - Visible Passes

Search period start: 30 November 2021 00:00
Search period end: 10 December 2021 00:00
Orbit: 330 x 341 km, 45.0° (Epoch: 20 November)

Date Brightness Start Highest point End Pass type
(mag) Time Alt. Az. Time Alt. Az. Time Alt. Az.
02 Dec 3.5 00:26:29 10° SSW 00:26:40 11° SSW 00:26:40 11° SSW visible
03 Dec 1.3 23:31:55 10° SSW 23:34:32 32° SE 23:35:19 27° ESE visible
04 Dec 0.5 23:52:06 10° WSW 23:54:54 58° NW 23:55:10 55° N visible
06 Dec 2.7 00:13:16 10° WNW 00:14:56 19° NW 00:14:56 19° NW visible
06 Dec 0.7 22:57:31 10° WSW 23:00:20 59° NW 23:03:10 10° NE visible
07 Dec 2.4 23:18:41 10° WNW 23:20:55 20° NNW 23:23:02 11° NNE visible
08 Dec 3.1 23:41:30 10° NNW 23:41:41 10° NNW 23:41:52 10° NNW visible
